SB KEPS @ AMSAT $ORB26238.1 2Line Orbital Elements 26238.AMSAT QST de W1STR AMSAT Orbital Elements for Amateur Satellites in TLE Format From Orbital Analysis Office New England Sci-Tech STEM Education Center Natick MA August 26, 2026 To all radio amateurs These element sets describe the orbits of various satellites in use by the amateur radio community. For details see: www.amsat.org/keplerian-elements-formats/ A daily update of element sets is available at: www.amsat.org/tle/daily-bulletin.txt or without bulletin text: www.amsat.org/tle/dailytle.txt AO-07 1 07530U 74089B 26237.89886786 -.00000022 00000-0 15448-3 0 9993 2 07530 101.9921 251.8744 0012238 0.1241 118.5067 12.53699279369251 UO-11 1 14781U 84021B 26238.15673973 .00001179 00000-0 12513-3 0 9991 2 14781 97.8132 202.9836 0006562 323.2460 36.8307 14.90946468267555 LO-19 1 20442U 90005G 26238.01995094 .00000082 00000-0 45922-4 0 9990 2 20442 98.8840 261.7443 0011587 6.9920 353.1423 14.34139915912403 AO-27 1 22825U 93061C 26238.13306860 .00000068 00000-0 42690-4 0 9995 2 22825 98.6826 305.5016 0007283 252.6278 107.4109 14.30957440717006 FO-29 1 24278U 96046B 26238.02938191 .00000008 00000-0 47007-4 0 9992 2 24278 98.5186 77.3277 0348792 275.2164 80.9271 13.53277187482617 GO-32 1 25397U 98043D 26237.39393178 .00000046 00000-0 40069-4 0 9996 2 25397 99.0129 231.9166 0001947 49.5442 310.5906 14.24439747461184 ISS 1 25544U 98067A 26238.17646692 .00007447 00000-0 14005-3 0 9997 2 25544 51.6329 313.6786 0007692 84.9120 275.2746 15.49633385582601 NO-44 1 26931U 01043C 26237.93430801 .00000098 00000-0 67436-4 0 9994 2 26931 67.0497 63.8701 0005643 270.5104 89.5352 14.31977935300439 SO-50 1 27607U 02058C 26237.54008956 .00000789 00000-0 11043-3 0 9990 2 27607 64.5511 274.3876 0073049 249.7539 109.5704 14.83176539274742 CO-55 1 27844U 03031E 26238.00319572 .00000232 00000-0 11914-3 0 9996 2 27844 98.6766 245.6928 0009312 350.4289 9.6711 14.24372075201610 RS-22 1 27939U 03042A 26238.23257109 .00000567 00000-0 95333-4 0 9994 2 27939 98.3485 64.5857 0012336 50.4001 65.1400 14.73573032225863 CO-65 1 32785U 08021C 26238.17172804 .00004888 00000-0 30455-3 0 9995 2 32785 97.8340 221.1019 0009656 141.7179 218.4737 15.10013828995756 CO-66 1 32791U 08021J 26237.41702366 .00018518 00000-0 54848-3 0 9997 2 32791 97.7552 238.7512 0004709 80.3531 279.8243 15.34917306997905 RS-30 1 32953U 08025A 26238.19490014 .00000060 00000-0 36293-3 0 9998 2 32953 82.5065 311.9009 0020217 156.1471 204.0550 12.43182337828390 SRMSAT 1 37841U 11058D 26237.64850984 .00000372 00000-0 57963-4 0 9998 2 37841 19.9733 359.0284 0011603 248.5454 227.7610 14.11588441767643 ZACUBE-1 1 39417U 13066B 26236.85384148 .00005302 00000-0 40596-3 0 9997 2 39417 97.8038 199.5196 0041906 23.2843 337.0267 15.01612971691033 Delfi-N3xt 1 39428U 13066N 26238.03274409 .00007016 00000-0 60013-3 0 9999 2 39428 97.8292 158.2995 0072907 335.4630 24.3127 14.95868781685064 GOMX-1 1 39430U 13066Q 26238.18128572 .00001398 00000-0 21541-3 0 9997 2 39430 97.6452 74.2323 0127229 212.0405 147.3023 14.69633484680194 LO-74 1 39440U 13066AA 26237.58439925 .00002289 00000-0 21261-3 0 9997 2 39440 97.8944 186.8951 0057561 155.7912 204.6033 14.94160522687356 AO-73 1 39444U 13066AE 26237.64059104 .00006642 00000-0 40337-3 0 9997 2 39444 97.8340 210.6043 0034557 330.2827 29.6438 15.10351827690147 DTUSAT-2 1 40030U 14033W 26237.96487039 .00006542 00000-0 34607-3 0 9994 2 40030 98.0895 240.1802 0007872 10.6403 349.4993 15.15808969663258 LILACSAT-2 1 40908U 15049K 26238.13770867 .00017526 00000-0 27562-3 0 9996 2 40908 97.4595 277.7256 0006345 15.5495 344.5951 15.53661242606609 Lapan A3 1 41603U 16040E 26238.21605653 .00003308 00000-0 10432-3 0 9991 2 41603 97.1542 232.0999 0011824 119.1800 241.0628 15.33493664565546 CAS-2T 1 41847U 16066G 26238.04880714 .00000452 00000-0 73630-4 0 9990 2 41847 98.3778 312.9849 0340062 277.6016 78.6680 14.44815310514880 TechnoSat 1 42829U 17042E 26237.65539342 .00003554 00000-0 25189-3 0 9991 2 42829 97.4360 32.7216 0016823 213.3903 146.6265 15.05295995497154 AO-91 1 43017U 17073E 26237.57781441 .00008388 00000-0 35626-3 0 9992 2 43017 97.4604 103.3769 0149730 88.8422 272.9959 15.13613062475885 S-Net D 1 43186U 18014G 26237.45919450 .00004173 00000-0 21305-3 0 9992 2 43186 97.5280 141.8153 0009395 129.7316 230.4746 15.17225200469261 S-Net B 1 43187U 18014H 26237.53800047 .00004355 00000-0 22236-3 0 9999 2 43187 97.5285 141.8823 0010077 126.0963 234.1204 15.17193757469270 S-Net A 1 43188U 18014J 26237.98530623 .00004039 00000-0 20621-3 0 9994 2 43188 97.5296 142.5490 0009999 125.2506 234.9664 15.17237589469344 S-Net C 1 43189U 18014K 26237.54229380 .00004456 00000-0 22743-3 0 9992 2 43189 97.5314 142.1940 0011442 121.1023 239.1334 15.17183588467828 Ten-Koh 1 43677U 18084G 26238.09073693 .00002426 00000-0 18424-3 0 9992 2 43677 98.0750 73.4070 0008602 241.6668 118.3689 15.03183355426662 PO-101 1 43678U 18084H 26238.18603081 .00001226 00000-0 10203-3 0 9997 2 43678 98.1202 77.4749 0010495 298.8293 61.1876 15.00676729426712 QO-100 1 43700U 18090A 26238.12065075 .00000142 00000-0 00000+0 0 9995 2 43700 0.0163 119.9668 0002461 62.8538 220.7680 1.00271979 28372 MinXSS-2 1 43758U 18099A 26237.20156109 .00044650 00000-0 74875-3 0 9991 2 43758 97.4484 315.7307 0005984 21.3387 338.8113 15.51680952424819 AO-95 1 43770U 18099N 26238.11098322 .00010962 00000-0 40261-3 0 9999 2 43770 97.4328 298.1424 0010114 100.5415 259.6964 15.28053710423898 SNUSat 2 1 43782U 18099AA 26238.13947397 .00007199 00000-0 31048-3 0 9990 2 43782 97.4011 290.4722 0011235 56.9284 303.3030 15.22791146423672 SnugLite 1 43784U 18099AC 26238.08943418 .00009944 00000-0 36075-3 0 9991 2 43784 97.3814 291.7254 0004047 64.0359 296.1298 15.28523229423995 ITASat 1 1 43786U 18099AE 26238.09174191 .00006257 00000-0 29440-3 0 9990 2 43786 97.3978 288.2227 0013990 107.1531 253.1237 15.19819596423527 EAGLET 1 1 43790U 18099AJ 26238.08260817 .00004089 00000-0 23225-3 0 9991 2 43790 97.4179 285.8984 0012653 102.8954 257.3692 15.13393217422908 ESEO 1 43792U 18099AL 26238.08894223 .00001085 00000-0 81676-4 0 9995 2 43792 97.3939 272.4756 0014017 94.4686 265.8142 15.04428534422316 JO-97 1 43803U 18099AX 26238.12144801 .00016547 00000-0 47772-3 0 9990 2 43803 97.4075 301.2795 0005896 37.9091 322.2567 15.35733129424350 Suomi 100 1 43804U 18099AY 26238.15812366 .00009909 00000-0 34427-3 0 9999 2 43804 97.4133 298.3412 0010337 41.5310 318.6714 15.29901131424119 ISAT 1 43879U 18111D 26238.07428406 .00242543 00000-0 10949-2 0 9990 2 43879 97.5805 179.5044 0007750 102.7821 257.4314 15.83335674422152 UWE-4 1 43880U 18111E 26237.75979179 .00035833 00000-0 63094-3 0 9996 2 43880 97.5821 169.5715 0009871 78.1766 282.0592 15.50315472421548 Sparrow 1 43881U 18111F 26228.98401838 .16116594 28263-5 19760-3 0 9992 2 43881 97.5857 177.1140 0010462 202.8700 157.2139 16.49385238421037 Prox-1 1 44339U 19036A 26237.70834776 .00013069 00000-0 12269-2 0 9995 2 44339 23.9961 9.3013 0005968 115.3036 244.8083 14.92071662383863 Taurus 1 1 44530U 19059C 26238.23680627 .00005133 00000-0 81203-3 0 9994 2 44530 98.6476 47.4739 0009658 93.0633 267.1677 14.72729666368951 TO-108 1 44881U 19093C 26238.18216899 .00000300 00000-0 39859-4 0 9993 2 44881 97.7489 308.6916 0012538 211.3723 148.6746 14.86610225361812 RS-44 1 44909U 19096E 26238.13217313 .00000032 00000-0 89327-4 0 9991 2 44909 82.5209 293.2347 0217060 341.1266 18.1876 12.79748922311291 SALSAT 1 46495U 20068K 26237.26336135 .00007111 00000-0 24232-3 0 9999 2 46495 97.8877 244.5903 0011122 65.4484 294.7913 15.30667520325922 CSS (TIANHE-1) 1 48274U 21035A 26238.05370608 .00015784 00000-0 19884-3 0 9994 2 48274 41.4676 257.8878 0001646 252.6312 107.4346 15.59272961304074 TeikyoSat 4 1 49396U 21102B 26238.05024102 .00001360 00000-0 87996-4 0 9995 2 49396 97.3648 264.8164 0013420 57.1042 303.1477 15.09718704263266 Z-Sat 1 49399U 21102E 26238.11393419 .00004391 00000-0 21396-3 0 9993 2 49399 97.3295 271.3202 0016572 9.4462 350.7081 15.18735307264055 KOSEN 1 1 49402U 21102H 26238.04880240 .00006450 00000-0 24040-3 0 9990 2 49402 97.3142 278.8716 0012154 326.6612 33.3861 15.27714653264686 HO-113 1 50466U 21131B 26238.16657490 .00000249 00000-0 90328-4 0 9999 2 50466 98.4979 330.1764 0002998 239.1017 120.9877 14.41411190245195 SNUGLITE 2 1 52899U 22065F 26237.38381095 .00000821 00000-0 16424-3 0 9996 2 52899 98.2297 22.1330 0007925 157.9342 202.2203 14.64455419221129 UmKA 1 (RS40S) 1 57172U 23091G 26238.15011514 .00005094 00000-0 22922-3 0 9994 2 57172 97.4997 296.5888 0011218 229.9336 130.0916 15.21498863174641 CubeBel-2 (EU11S) 1 57175U 23091K 26238.10014041 .00011786 00000-0 39936-3 0 9998 2 57175 97.4998 301.9970 0008444 218.3564 141.7077 15.30688247174992 RS-38S 1 57189U 23091Z 26238.13168120 .00016898 00000-0 45287-3 0 9999 2 57189 97.5042 309.1016 0007325 168.0196 192.1224 15.38040901175439 SONATE-2 1 59112U 24043Q 26237.86742750 .00045937 00000-0 48569-3 0 9993 2 59112 97.5592 32.8553 0004779 303.1861 56.8939 15.64041820138768 GRBBeta 1 60237U 24128C 26237.36605204 .00003353 00000-0 23439-3 0 9999 2 60237 61.9920 333.4723 0030853 149.7657 210.5225 15.07068956116697 Curium One 1 60242U 24128H 26237.36751953 .00007127 00000-0 40511-3 0 9991 2 60242 61.9801 320.5819 0029807 145.5167 214.7871 15.13406518116927 ROBUSTA-3A 1 60243U 24128J 26237.63677865 .00006559 00000-0 38259-3 0 9995 2 60243 61.9881 322.4909 0031666 142.5953 217.7356 15.12526555116927 CatSat 1 60246U 24125J 26237.08672416 .00099802 00000-0 89563-3 0 9998 2 60246 97.2010 90.9174 0014495 281.2037 78.7595 15.67838486118158 HYPERVIEW-1G (RS66S) 1 61772U 24199AP 26230.11543498 .07890463 24672-5 93922-3 0 9997 2 61772 97.2456 114.2453 0006603 245.8477 114.2131 16.36574258144515 AO-123 1 61781U 24199AY 26238.12600444 .00007102 00000-0 20037-3 0 9995 2 61781 97.2895 106.1726 0015179 61.5738 298.7034 15.36586388144668 LASARsat 1 62391U 24247Q 26238.09874669 .00037845 00000-0 64748-3 0 9999 2 62391 44.9711 228.0869 0007615 60.9476 299.2178 15.50643246 94158 CroCube 1 62394U 24247T 26237.03134957 .00043022 00000-0 67126-3 0 9991 2 62394 44.9685 230.1372 0007916 62.8834 297.2865 15.53158446 94031 JINJUSat 1B 1 63210U 25052A 26238.17970497 .00014017 00000-0 40812-3 0 9992 2 63210 97.3902 135.0962 0003366 152.1394 208.0030 15.35516067 80834 NUSHSAT 1 1 63211U 25052B 26237.70835974 .00020284 00000-0 53493-3 0 9993 2 63211 97.3879 135.4552 0002950 150.1766 209.9648 15.38519283 80826 TEVEL2-4 1 63213U 25052D 26237.96401060 .00017937 00000-0 49903-3 0 9990 2 63213 97.3800 134.5501 0002132 156.7646 203.3695 15.36888413 80829 TEVEL2-5 1 63214U 25052E 26237.47225635 .00018627 00000-0 52190-3 0 9998 2 63214 97.3801 133.9830 0001910 158.4449 201.6876 15.36660131 80740 TEVEL2-6 1 63215U 25052F 26237.68152751 .00017508 00000-0 49119-3 0 9994 2 63215 97.3804 134.1780 0001845 157.1439 202.9888 15.36633284 80772 TEVEL2-1 1 63217U 25052H 26237.21540064 .00017945 00000-0 51363-3 0 9992 2 63217 97.3777 133.2480 0001330 181.0795 179.0446 15.36001106 80686 TEVEL2-3 1 63218U 25052J 26237.66317171 .00017424 00000-0 49745-3 0 9996 2 63218 97.3780 133.7288 0001252 165.7192 194.4088 15.36087944 80750 TEVEL2-2 1 63219U 25052K 26237.15005463 .00018119 00000-0 51841-3 0 9991 2 63219 97.3779 133.1859 0001283 183.1287 176.9949 15.36012063 80672 TEVEL2-9 1 63237U 25052AD 26237.67705775 .00014953 00000-0 45839-3 0 9993 2 63237 97.3840 132.9296 0003852 245.6439 114.4402 15.33870090 80670 TEVEL2-7 1 63238U 25052AE 26235.51388802 .00015154 00000-0 47057-3 0 9991 2 63238 97.3840 130.6525 0003641 257.9226 102.1608 15.33456949 80335 TEVEL2-8 1 63239U 25052AF 26237.67610641 .00014962 00000-0 46384-3 0 9998 2 63239 97.3842 132.7877 0003769 248.7020 111.3820 15.33511361 80666 SPIRONE 1 66657U 25274H 26237.05430049 .00001324 00000-0 13008-3 0 9990 2 66657 97.7469 165.3689 0012887 138.9840 221.2351 14.93780146 40509 K-HERO 1 66660U 25274L 26237.30803494 .00001425 00000-0 13814-3 0 9997 2 66660 97.7478 165.8303 0014681 142.8112 217.4128 14.94179988 40552 SNUGLITE-III DURI 1 66661U 25274M 26238.03124015 .00001498 00000-0 14492-3 0 9997 2 66661 97.7475 166.5646 0015354 141.8171 218.4140 14.94195490 40663 SAKHACUBE-CHOLBON 1 67290U 25313AU 26237.69204415 .00009201 00000-0 35990-3 0 9990 2 67290 97.3894 311.8946 0010674 109.0416 251.1980 15.26008460 36576 RS95S (QMR-KWT-2) 1 67291U 25313AV 26237.21167634 .00014197 00000-0 52252-3 0 9990 2 67291 97.3892 311.7652 0010218 108.8551 251.3797 15.27917595 36521 Ten-Koh2 1 68261U 25241B 26236.59529002 .00007134 00000-0 29812-3 0 9998 2 68261 51.6644 353.8573 0006634 8.9705 351.1391 15.24650253 25343 JACK-002 1 68417U 26067B 26237.82113558 .00006328 00000-0 29567-3 0 9991 2 68417 97.4626 195.6118 0003609 61.7667 298.3932 15.20145410 22524 DISCO 2 1 68431U 26067R 26238.11608375 .00007508 00000-0 35160-3 0 9993 2 68431 97.4658 195.8989 0004133 99.1242 261.0461 15.20003217 22566 HADES-SA (SpinnyONE) 1 68446U 26067AG 26238.12648043 .00016840 00000-0 75614-3 0 9993 2 68446 97.4448 195.5063 0006432 168.3079 191.8307 15.21222462 22554 PARUS-6U1 1 68456U 26067AS 26237.60714398 .00004774 00000-0 23699-3 0 9992 2 68456 97.4608 194.9576 0005711 162.9698 197.1729 15.18150657 22460 SAL-E 1 68458U 26067AU 26236.59743294 .00006402 00000-0 31241-3 0 9990 2 68458 97.4530 193.8673 0005453 174.2136 185.9163 15.18621312 22310 FSI-SAT 2 1 68792U 26088A 26237.86797166 .00003718 00000-0 24994-3 0 9996 2 68792 97.5161 25.4393 0013063 224.2268 135.7916 15.07305029 18786 OrigamiSat 2 1 68795U 26088D 26238.03321010 .00012907 00000-0 79292-3 0 9991 2 68795 97.5144 25.9844 0014620 194.4716 165.6096 15.10118877 18836 ARICA 2 1 68796U 26088E 26237.33880325 .00003974 00000-0 25541-3 0 9995 2 68796 97.5151 25.2086 0015034 195.6647 164.4119 15.08898289 18722 WASEDA-SAT-ZERO-II 1 68797U 26088F 26238.04933374 .00005467 00000-0 34592-3 0 9993 2 68797 97.5141 25.9433 0014996 193.4459 166.6373 15.09312679 18831 MANGARO-II-Piscus 1 68798U 26088G 26237.84022839 .00003958 00000-0 25201-3 0 9996 2 68798 97.5153 25.7793 0018475 198.5520 161.5038 15.09201449 18804 CO-128 1 69912U 26156AV 26237.53910937 .00001396 00000-0 14721-3 0 9991 2 69912 97.7502 137.1196 0002589 14.8600 345.2694 14.90896517 7336 MARINA 1 69920U 26156BD 26237.63469829 .00001733 00000-0 17600-3 0 9994 2 69920 97.7470 137.2833 0007552 3.9423 356.1854 14.92094720 7354 IO-86 1 40931U 26199.45381863 .00000000 00000-0 77536-4 0 07 2 40931 6.0006 322.6653 0012733 338.8432 273.6875 14.79294310 03 LILIUM-4 1 71922C 26067AC 26089.50133053 -.00014632 00000+0 -74472-3 0 04 2 71922 97.4497 49.1617 0004341 5.9603 355.7042 15.16896692 16 /EX